[[{"header":{"parameterUnit":"m.s-1","parameterCategory":1,"la1":30.2991,"la2":30.254,"lo1":-89.0895,"lo2":-89.0444,"dy":0.0017,"dx":0.0017,"nx":28,"ny":28,"refTime":"2025-11-28T03:00:00:Z","depth":0,"parameterNumber":2,"parameterNumberName":"U-component_of_WINDS"},"data":[0,0,0,0,0,0,0,0,0,0,0,0,0,0,0,0,0,0,0,0,0,0,0,0,0,0,0,0,0,0,0,0,0,0,0,0,0,0,0,0,0,0,0,0,0,0,0,0,0,0,0,0,0,0,0,0,0,0,0.0815,0.0814,0,0.0757,0.0756,0.0755,0.078,0.0782,0.0783,0.0784,0.0722,0.0719,0.0716,0,0,0,0,0,0,0,0,0,0,0,0,0,0.0946,0.0943,0.0815,0.0814,0.0813,0.0757,0.0756,0.0755,0.078,0.0782,0.0783,0.0785,0.0723,0.0719,0.0716,0,0,0,0,0,0,0,0,0,0,0,0,0,0.0888,0.0942,0.0815,0.0819,0.0819,0.0757,0.0756,0.0755,0.0779,0.0782,0.0784,0.0786,0.0724,0.072,0.0715,0.0645,0,0,0.0702,0.07,0,0,0,0,0,0,0,0,0.0891,0.0883,0.0819,0.0819,0.0818,0.0778,0.0779,0.0718,0.0779,0.0794,0.0784,0.0787,0.0739,0.0733,0.0717,0.0642,0.0639,0.0701,0.0698,0.0696,0.0695,0,0,0,0,0,0,0,0.0895,0.0886,0.0792,0.0818,0.0818,0.0823,0.0817,0.0768,0.0755,0.0793,0.0795,0.0788,0.0739,0.0722,0.0716,0.0638,0.0701,0.0697,0.0695,0.0693,0.0502,0.05,0,0,0,0,0,0,0.09,0.0889,0.0794,0.079,0.0861,0.0819,0.0813,0.0789,0.0756,0.0753,0.0786,0.0789,0.0728,0.0721,0.0714,0.0628,0.0697,0.0692,0.069,0.0504,0.0502,0.0499,0,0,0,0,0,0,0.0902,0.0891,0.0796,0.084,0.0828,0.0815,0.0787,0.0786,0.0769,0.075,0.0748,0.0771,0.073,0.072,0.0662,0.0627,0.069,0.0686,0.0507,0.0504,0.05,0.0457,0,0,0,0,0,0,0.0906,0.0892,0.0865,0.0839,0.0826,0.0745,0.0785,0.0784,0.0762,0.0765,0.0736,0.0733,0.0731,0.0669,0.0658,0.0622,0.0683,0.051,0.0506,0.0501,0.0462,0.0453,0.0445,0,0,0,0,0,0.0911,0.0855,0.0864,0.0852,0.0793,0.0743,0.0735,0.0735,0.0759,0.0732,0.072,0.0734,0.0633,0.0662,0.065,0.0612,0.0512,0.0507,0.0502,0.0465,0.0454,0.0445,0,0,0,0,0,0,0.0876,0.0852,0.0861,0.0796,0.0771,0.0748,0.0713,0.0723,0.0691,0.0696,0.0696,0.0689,0.0628,0.0615,0.0648,0.0542,0.0576,0.0568,0.0553,0.0542,0.0534,0.0537,0.0679,0,0,0,0,0,0.0861,0.0824,0.0804,0.0748,0.0736,0.0727,0.0705,0.0707,0.0682,0.0671,0.0655,0.0629,0.0592,0.0567,0.0531,0.0461,0.0454,0.0429,0.0421,0.0414,0.0406,0.0367,0.0355,0.0481,0.0481,0.0482,0,0,0.0829,0.0811,0.0787,0.0741,0.0722,0.0683,0.0718,0.0674,0.0645,0.0664,0.0608,0.0595,0.0567,0.0502,0.0472,0.0489,0.037,0.0407,0.0402,0.0397,0.036,0.0348,0.0337,0.0478,0.0478,0.0479,0,0,0.075,0.0734,0.0684,0.0666,0.0638,0.0632,0.062,0.0595,0.0588,0.0532,0.0545,0.051,0.0446,0.0425,0.0405,0.032,0.0331,0.0308,0.0263,0.0225,0.0215,0.0206,0.0174,0.0162,0.0301,0.0301,0.0301,0,0.0713,0.0654,0.0658,0.0613,0.0592,0.061,0.0559,0.0541,0.0502,0.0487,0.0506,0.0426,0.0408,0.0338,0.0317,0.0302,0.0287,0.031,0.0216,0.0208,0.0199,0.0168,0.0156,0.0298,0.0299,0.0299,0.0299,0,0.061,0.0569,0.0533,0.0496,0.0471,0.0424,0.0419,0.0393,0.0398,0.0391,0.0333,0.0313,0.0273,0.0257,0.0261,0.0187,0.0198,0.0217,0.025,0.0184,0.0155,0.0143,0.0294,0.0295,0.0296,0.0297,0,0,0.0504,0.0471,0.0457,0.044,0.0412,0.038,0.0334,0.0296,0.0273,0.0247,0.0207,0.0153,0.017,0.0149,0.0151,0.0118,0.0049,0.014,0.014,0.0122,-0.0035,-0.0051,-0.0065,0.0058,0.0056,0.0054,-0.0034,0,0.0421,0.034,0.0342,0.0267,0.0228,0.0246,0.0206,0.0183,0.0175,0.0141,0.0133,0.0093,0.0121,0.0107,0.0076,0.0064,0.0017,0.0071,0.0019,0.0017,0.0022,-0.008,-0.0097,-0.0179,-0.0045,-0.0047,-0.0048,0,0.0312,0.0283,0.0203,0.018,0.0164,0.0128,0.0093,0.0061,0.0036,0.0033,0.0009,0.0017,-0.0031,0.0007,-0.006,-0.0023,-0.0044,-0.0052,-0.0055,-0.0063,-0.0022,-0.0093,-0.0205,-0.0218,-0.0066,-0.0064,-0.0063,0,0.024,0.0181,0.0126,0.0111,0.0083,0.0057,0.0044,0.0022,-0.0001,-0.0031,-0.0046,-0.0081,-0.0101,-0.0129,-0.0131,-0.0103,-0.0198,-0.0161,-0.0204,-0.0204,-0.0228,-0.0227,-0.0348,-0.0236,-0.0236,-0.0236,-0.0236,0,0.0145,0.0095,0.0093,0.0058,0.0003,0.0007,-0.0048,-0.0059,-0.0079,-0.0115,-0.0101,-0.0136,-0.0136,-0.0171,-0.0173,-0.0229,-0.0237,-0.0242,-0.0243,-0.0245,-0.0245,-0.0261,-0.0257,-0.0239,-0.0238,-0.0238,-0.0237,0,0.0054,0.0051,-0.0009,-0.003,-0.0036,-0.0076,-0.0094,-0.0127,-0.0133,-0.0179,-0.019,-0.0199,-0.024,-0.0244,-0.0292,-0.0293,-0.0361,-0.0354,-0.0353,-0.0353,-0.0397,-0.0393,-0.0534,-0.0553,-0.0427,-0.0428,-0.0429,0,-0.0008,-0.0046,-0.007,-0.0093,-0.0108,-0.0145,-0.0168,-0.0165,-0.019,-0.022,-0.025,-0.0289,-0.0321,-0.0387,-0.0399,-0.0435,-0.0431,-0.0477,-0.0436,-0.0438,-0.0435,-0.0433,-0.0438,-0.0487,-0.0488,-0.0489,-0.049,0,-0.0118,-0.0118,-0.0151,-0.0185,-0.0212,-0.0239,-0.0264,-0.0284,-0.0284,-0.0313,-0.0354,-0.0378,-0.0426,-0.0466,-0.0502,-0.0515,-0.0504,-0.0502,-0.0515,-0.0519,-0.0518,-0.0522,-0.0378,-0.05,-0.0499,-0.0498,-0.0498,-0.0497,-0.0199,-0.0232,-0.0254,-0.0292,-0.031,-0.0333,-0.0366,-0.0374,-0.0409,-0.0448,-0.0443,-0.049,-0.0513,-0.0559,-0.0575,-0.0612,-0.0596,-0.0614,-0.0619,-0.0624,-0.063,-0.0509,-0.0618,-0.0618,-0.0617,-0.0617,-0.0617,0,-0.031,-0.0323,-0.0358,-0.0393,-0.0423,-0.0406,-0.0433,-0.0459,-0.05,-0.0522,-0.0553,-0.0601,-0.0639,-0.0652,-0.069,-0.0716,-0.0712,-0.0726,-0.0726,-0.073,-0.064,-0.0627,-0.073,-0.0729,-0.0729,-0.0729,-0.0729,-0.0729,-0.0372,-0.0428,-0.043,-0.0495,-0.0507,-0.0552,-0.0569,-0.059,-0.0608,-0.0662,-0.0693,-0.0701,-0.072,-0.0759,-0.0793,-0.0796,-0.0812,-0.0829,-0.083,-0.0747,-0.0736,-0.0725,-0.0713,-0.0832,-0.0832,-0.0917,-0.0918,-0.0919]},{"header":{"parameterUnit":"m.s-1","parameterCategory":1,"la1":30.2991,"la2":30.254,"lo1":-89.0895,"lo2":-89.0444,"dy":0.0017,"dx":0.0017,"nx":28,"ny":28,"refTime":"2025-11-28T03:00:00:Z","depth":0,"parameterNumber":3,"parameterNumberName":"V-component_of_WINDS"},"data":[0,0,0,0,0,0,0,0,0,0,0,0,0,0,0,0,0,0,0,0,0,0,0,0,0,0,0,0,0,0,0,0,0,0,0,0,0,0,0,0,0,0,0,0,0,0,0,0,0,0,0,0,0,0,0,0,0,0,-6.6153,-6.6155,0,-6.6334,-6.6336,-6.6338,-6.6245,-6.624,-6.6235,-6.6231,-6.641,-6.6419,-6.6428,0,0,0,0,0,0,0,0,0,0,0,0,0,-6.5722,-6.573,-6.6153,-6.6155,-6.6157,-6.6333,-6.6336,-6.6338,-6.6246,-6.624,-6.6234,-6.6228,-6.6407,-6.6418,-6.6429,0,0,0,0,0,0,0,0,0,0,0,0,0,-6.5906,-6.5733,-6.6152,-6.6132,-6.6132,-6.6333,-6.6336,-6.6339,-6.6247,-6.624,-6.6232,-6.6226,-6.6403,-6.6417,-6.643,-6.6659,0,0,-6.6473,-6.6479,0,0,0,0,0,0,0,0,-6.5896,-6.5922,-6.6133,-6.6134,-6.6134,-6.6259,-6.6249,-6.6446,-6.6249,-6.6203,-6.623,-6.6222,-6.6365,-6.6382,-6.6431,-6.6667,-6.6675,-6.6474,-6.6482,-6.6488,-6.6492,0,0,0,0,0,0,0,-6.5883,-6.5914,-6.6224,-6.6136,-6.6137,-6.6113,-6.6131,-6.6286,-6.6322,-6.6207,-6.62,-6.6223,-6.6364,-6.6418,-6.6435,-6.6678,-6.6473,-6.6486,-6.6494,-6.65,-6.7111,-6.7119,0,0,0,0,0,0,-6.5872,-6.5904,-6.6218,-6.6229,-6.5995,-6.6126,-6.6147,-6.6226,-6.632,-6.6328,-6.6229,-6.6218,-6.6398,-6.6419,-6.6441,-6.6716,-6.6488,-6.6501,-6.6509,-6.7103,-6.7113,-6.7121,0,0,0,0,0,0,-6.5863,-6.5901,-6.6211,-6.6065,-6.6103,-6.6141,-6.6232,-6.6234,-6.6288,-6.6337,-6.6342,-6.6278,-6.6393,-6.6421,-6.6606,-6.672,-6.6507,-6.652,-6.7094,-6.7106,-6.7117,-6.7267,0,0,0,0,0,0,-6.5851,-6.5899,-6.5987,-6.6068,-6.6111,-6.6376,-6.6239,-6.6243,-6.6313,-6.63,-6.6385,-6.6392,-6.639,-6.6586,-6.662,-6.6736,-6.6531,-6.7084,-6.7099,-6.7113,-6.7252,-6.7282,-6.7308,0,0,0,0,0,-6.5836,-6.6021,-6.5992,-6.6031,-6.6223,-6.6382,-6.6407,-6.6403,-6.6322,-6.6411,-6.6443,-6.6389,-6.6702,-6.6606,-6.6643,-6.6765,-6.7077,-6.7095,-6.7112,-6.7239,-6.7276,-6.7308,0,0,0,0,0,0,-6.595,-6.6031,-6.6,-6.6216,-6.6294,-6.6366,-6.6478,-6.6442,-6.6542,-6.6526,-6.6514,-6.6534,-6.6726,-6.6763,-6.6654,-6.6991,-6.6877,-6.6903,-6.696,-6.6996,-6.7024,-6.7011,-6.6542,0,0,0,0,0,-6.6001,-6.6126,-6.6188,-6.6373,-6.6413,-6.644,-6.6509,-6.6499,-6.6578,-6.6609,-6.6654,-6.6731,-6.6847,-6.6923,-6.7032,-6.7256,-6.7273,-6.7358,-6.7386,-6.7409,-6.7432,-6.7554,-6.7593,-6.718,-6.718,-6.718,0,0,-6.6106,-6.6165,-6.6244,-6.6397,-6.6456,-6.6584,-6.6468,-6.6607,-6.6702,-6.663,-6.6808,-6.6844,-6.6928,-6.7135,-6.7227,-6.7171,-6.755,-6.7432,-6.745,-6.7461,-6.7577,-6.7616,-6.765,-6.7192,-6.719,-6.7188,0,0,-6.6363,-6.6421,-6.6582,-6.6643,-6.6734,-6.6751,-6.6789,-6.6869,-6.6891,-6.707,-6.7018,-6.7129,-6.7329,-6.7392,-6.745,-6.7732,-6.7686,-6.7767,-6.7915,-6.8034,-6.8067,-6.8096,-6.8197,-6.8234,-6.779,-6.779,-6.779,0,-6.6482,-6.6675,-6.6668,-6.6814,-6.6882,-6.6825,-6.6987,-6.7046,-6.7167,-6.7215,-6.7151,-6.7401,-6.7454,-6.7674,-6.7744,-6.7792,-6.7835,-6.7758,-6.8063,-6.8092,-6.8119,-6.8215,-6.8253,-6.78,-6.7798,-6.7797,-6.7797,0,-6.6817,-6.6951,-6.707,-6.7191,-6.7273,-6.7426,-6.7441,-6.7524,-6.7507,-6.753,-6.7713,-6.7774,-6.7896,-6.7947,-6.793,-6.8165,-6.8128,-6.8064,-6.7949,-6.8168,-6.8258,-6.8295,-6.7813,-6.781,-6.7807,-6.7804,0,0,-6.7151,-6.7268,-6.7312,-6.7367,-6.7463,-6.7566,-6.7716,-6.7836,-6.7908,-6.7993,-6.8118,-6.8289,-6.8231,-6.8297,-6.8287,-6.8391,-6.8612,-6.8315,-6.8316,-6.8369,-6.8875,-6.8923,-6.8966,-6.8582,-6.8589,-6.8595,-6.8868,0,-6.7416,-6.7681,-6.7679,-6.7923,-6.8047,-6.7995,-6.8125,-6.8197,-6.8223,-6.833,-6.8356,-6.8478,-6.8392,-6.8432,-6.8532,-6.8564,-6.8714,-6.8544,-6.8698,-6.8703,-6.868,-6.9014,-6.9065,-6.932,-6.8903,-6.8909,-6.8914,0,-6.776,-6.786,-6.8118,-6.8197,-6.8249,-6.8367,-6.8477,-6.8581,-6.8662,-6.8672,-6.8747,-6.8722,-6.8872,-6.8753,-6.896,-6.8845,-6.8907,-6.8932,-6.8942,-6.8956,-6.8823,-6.9038,-6.9401,-6.944,-6.8969,-6.8965,-6.8961,0,-6.798,-6.8178,-6.8358,-6.8406,-6.8503,-6.8587,-6.8631,-6.8705,-6.8778,-6.8873,-6.8921,-6.9032,-6.9093,-6.9179,-6.9184,-6.9096,-6.9393,-6.9274,-6.9406,-6.9406,-6.9472,-6.9468,-6.9851,-6.9511,-6.951,-6.9509,-6.9508,0,-6.8277,-6.8436,-6.8458,-6.8569,-6.8746,-6.8742,-6.8917,-6.8952,-6.9019,-6.9134,-6.9094,-6.9203,-6.9202,-6.9313,-6.9317,-6.9488,-6.9515,-6.9528,-6.9527,-6.9533,-6.9531,-6.9574,-6.9557,-6.9519,-6.9517,-6.9515,-6.9513,0,-6.8552,-6.8573,-6.8766,-6.8843,-6.8866,-6.8993,-6.9057,-6.9162,-6.9183,-6.9331,-6.9364,-6.9398,-6.9526,-6.9539,-6.9687,-6.969,-6.9897,-6.9877,-6.9871,-6.9868,-7.0,-6.9988,-7.0425,-7.0483,-7.0104,-7.0107,-7.011,0,-6.8741,-6.8863,-6.8953,-6.9029,-6.9078,-6.9201,-6.9275,-6.9276,-6.9355,-6.9457,-6.9549,-6.9674,-6.9774,-6.9981,-7.0017,-7.013,-7.0113,-7.0258,-7.0129,-7.0131,-7.0116,-7.0109,-7.0122,-7.0283,-7.0287,-7.0291,-7.0294,0,-6.9073,-6.9078,-6.9189,-6.9304,-6.9395,-6.9485,-6.9569,-6.9633,-6.9643,-6.9734,-6.9866,-6.9944,-7.0097,-7.0221,-7.0333,-7.0375,-7.0337,-7.0334,-7.0371,-7.0378,-7.037,-7.0377,-6.9941,-7.0324,-7.0321,-7.0319,-7.0317,-7.0316,-6.9312,-6.9418,-6.9499,-6.9624,-6.9688,-6.9768,-6.9871,-6.9906,-7.0017,-7.0143,-7.0135,-7.0281,-7.0358,-7.0505,-7.0556,-7.0669,-7.062,-7.0673,-7.0686,-7.07,-7.0714,-7.0352,-7.0688,-7.0688,-7.0687,-7.0686,-7.0685,0,-6.9643,-6.9693,-6.9808,-6.9929,-7.0027,-6.9984,-7.0075,-7.0159,-7.0289,-7.0365,-7.0465,-7.0617,-7.0737,-7.0784,-7.0901,-7.0982,-7.0968,-7.1013,-7.1008,-7.1018,-7.075,-7.0708,-7.1023,-7.1023,-7.1023,-7.1023,-7.1023,-7.1023,-6.9828,-7.0006,-7.0021,-7.023,-7.0278,-7.0422,-7.0478,-7.0551,-7.0612,-7.0785,-7.0886,-7.0916,-7.098,-7.1102,-7.121,-7.122,-7.1265,-7.1319,-7.1322,-7.1071,-7.1037,-7.1004,-7.0964,-7.1329,-7.1329,-7.158,-7.1583,-7.1584]}]]